User: anonymous   Login
Location: Unspecified
(0.0000°N, 0.0000°E)
Time: 11:37:37
(UTC+00:00)
Language:

ANTELSAT - Orbit

View from above orbital plane
View from above orbital plane
View from above satellite
View from above satellite

Ground track
Ground track

The orbit data is extracted from the following two-line orbital elements,

1 40034U 14033AA  21016.17295616  .00000220  00000-0  39618-4 0  9994
2 40034  97.6899 227.3927 0059305  32.2818 328.1999 14.74381185353755
Epoch (UTC): 16 January 2021 04:09:03
Eccentricity: 0.0059305
inclination: 97.6899°
perigee height: 605 km
apogee height: 689 km
right ascension of ascending node: 227.3927°
argument of perigee: 32.2818°
revolutions per day: 14.74381185
mean anomaly at epoch: 328.1999°
orbit number at epoch: 35375

The dashed part of the orbit path shows where the satellite is in the earth's shadow,  

DLR